Terminal Aerodrome Forecast
Issued by NWS

Current Version | Previous Version | Graphics & Text | Print | Product List | Glossary On
Versions: 1 2 3 4 5 6 7 8 9 10 11 12 13 14 15 16 17 18 19 20 21 22
000
FTUS41 KRLX 200903 AAA
TAFCKB
TAF AMD
KCKB 200903Z 2009/2106 00000KT P6SM BKN040
     FM201800 22006KT P6SM BKN080
     FM210000 22006KT 6SM -SHRA OVC040
     FM210400 00000KT 3SM -SHRA OVC025=

USA.gov is the U.S. government's official web portal to all federal, state and local government web resources and services.